Volver al catálogo

FENGYUN 1C DEB

LostSSO
NORAD 31775·DEBRIS·🇨🇳 China

Lanzado May 10, 1999 desde Taiyuan Satellite Launch Center

Loading…

Próximos Pases (próximas 24 horas)

TLE

ObsoletoSource: Space-Track

Época: Sep 29, 2011, 03:18 UTC

1 31775U 99025CGA 11272.13812896 -.00000105  00000-0 -40584-4 0  9992
2 31775 099.1370 242.2837 0060171 072.0752 289.7628 13.99699462222039

Sigue FENGYUN 1C DEB en tiempo real con AllMySat

Download on the App Store